PAA2522 KBOS-KFZY

Flight info

Callsign PAA2522
Flight time 1h 7m
Altitude 16000
Route HYLND7 HYLND MANCH CAM LAMMS T608 SYR
Aircraft DC6/M-SDE1FGHIRWXY/S

Departure

Time 2026-05-06 04:37
Airport Boston Logan International Airport (KBOS)

Arrival

Time 2026-05-06 05:44
Airport Oswego County Airport (KFZY)
Time Latitude Longitude Altitude Speed Heading
2026-05-06 04:16 42.36836 -71.01472 25 ft 0 kts 248°
2026-05-06 04:20 42.36842 -71.01450 29 ft 3 kts 248°
2026-05-06 04:20 42.36848 -71.01428 26 ft 0 kts 248°
2026-05-06 04:20 42.36848 -71.01427 26 ft 0 kts 248°
2026-05-06 04:27 42.36848 -71.01428 25 ft 0 kts 248°
2026-05-06 04:27 42.36848 -71.01435 25 ft 1 kts 291°
2026-05-06 04:28 42.36856 -71.01440 30 ft 1 kts 14°
2026-05-06 04:28 42.36860 -71.01429 28 ft 3 kts 92°
2026-05-06 04:28 42.36864 -71.01337 25 ft 15 kts 57°
2026-05-06 04:28 42.36964 -71.01380 27 ft 22 kts 314°
2026-05-06 04:29 42.37085 -71.01569 27 ft 30 kts 305°
2026-05-06 04:29 42.37250 -71.01765 27 ft 32 kts 315°
2026-05-06 04:29 42.37329 -71.01872 27 ft 7 kts 330°
2026-05-06 04:29 42.37370 -71.01851 26 ft 0 kts 47°
2026-05-06 04:34 42.37371 -71.01848 26 ft 2 kts 47°
2026-05-06 04:35 42.37395 -71.01813 28 ft 8 kts 47°
2026-05-06 04:35 42.37402 -71.01766 27 ft 6 kts 110°
2026-05-06 04:35 42.37388 -71.01741 29 ft 0 kts 134°
2026-05-06 04:36 42.37382 -71.01732 27 ft 12 kts 135°
2026-05-06 04:36 42.37184 -71.01474 27 ft 66 kts 134°
2026-05-06 04:36 42.36753 -71.00893 34 ft 106 kts 134°
2026-05-06 04:37 42.36235 -71.00118 205 ft 112 kts 146°
2026-05-06 04:37 42.35664 -70.99333 431 ft 125 kts 141°
2026-05-06 04:37 42.35059 -70.98428 699 ft 134 kts 140°
2026-05-06 04:37 42.34419 -70.97422 894 ft 151 kts 139°
2026-05-06 04:38 42.33839 -70.96128 1037 ft 179 kts 112°
2026-05-06 04:38 42.33628 -70.94418 1327 ft 186 kts 109°
2026-05-06 04:38 42.33327 -70.92720 1611 ft 187 kts 116°
2026-05-06 04:38 42.32971 -70.90989 1816 ft 194 kts 116°
2026-05-06 04:39 42.32623 -70.89208 2069 ft 198 kts 115°
2026-05-06 04:39 42.32272 -70.87409 2356 ft 199 kts 115°
2026-05-06 04:39 42.32257 -70.85472 2485 ft 220 kts 75°
2026-05-06 04:39 42.32784 -70.83541 2748 ft 219 kts 75°
2026-05-06 04:40 42.33137 -70.81550 3011 ft 218 kts 83°
2026-05-06 04:40 42.33458 -70.79546 3280 ft 219 kts 80°
2026-05-06 04:40 42.33823 -70.77544 3544 ft 219 kts 79°
2026-05-06 04:40 42.34487 -70.75702 3698 ft 223 kts 43°
2026-05-06 04:41 42.35773 -70.74649 3946 ft 213 kts 14°
2026-05-06 04:41 42.37178 -70.74196 4222 ft 207 kts
2026-05-06 04:41 42.38559 -70.73594 4501 ft 209 kts 13°
2026-05-06 04:41 42.39931 -70.72966 4783 ft 208 kts 11°
2026-05-06 04:42 42.41315 -70.72397 5033 ft 208 kts 11°
2026-05-06 04:42 42.42702 -70.71818 5288 ft 208 kts 11°
2026-05-06 04:42 42.44084 -70.71244 5562 ft 206 kts
2026-05-06 04:42 42.45448 -70.71354 5717 ft 193 kts 329°
2026-05-06 04:43 42.46586 -70.72227 6021 ft 187 kts 324°
2026-05-06 04:43 42.47770 -70.72983 6293 ft 189 kts 329°
2026-05-06 04:43 42.48961 -70.73729 6550 ft 189 kts 327°
2026-05-06 04:43 42.50147 -70.74505 6797 ft 189 kts 328°
2026-05-06 04:44 42.51338 -70.75282 7032 ft 190 kts 328°
2026-05-06 04:44 42.52532 -70.76059 7290 ft 191 kts 328°
2026-05-06 04:44 42.53646 -70.76973 7484 ft 185 kts 307°
2026-05-06 04:44 42.54210 -70.78474 7705 ft 178 kts 291°
2026-05-06 04:45 42.54911 -70.79873 7961 ft 181 kts 303°
2026-05-06 04:45 42.55646 -70.81254 8218 ft 181 kts 298°
2026-05-06 04:45 42.56336 -70.82686 8519 ft 182 kts 298°
2026-05-06 04:45 42.57028 -70.84101 8781 ft 183 kts 299°
2026-05-06 04:46 42.57740 -70.85567 9042 ft 184 kts 299°
2026-05-06 04:46 42.58440 -70.87000 9300 ft 185 kts 299°
2026-05-06 04:46 42.59154 -70.88463 9553 ft 186 kts 299°
2026-05-06 04:46 42.59871 -70.89930 9822 ft 187 kts 300°
2026-05-06 04:47 42.60589 -70.91405 10065 ft 188 kts 300°
2026-05-06 04:47 42.61310 -70.92882 10307 ft 188 kts 299°
2026-05-06 04:47 42.62030 -70.94363 10559 ft 188 kts 299°
2026-05-06 04:47 42.62751 -70.95843 10806 ft 188 kts 299°
2026-05-06 04:48 42.63473 -70.97330 11057 ft 189 kts 300°
2026-05-06 04:48 42.64197 -70.98817 11310 ft 189 kts 299°
2026-05-06 04:48 42.64919 -71.00305 11565 ft 189 kts 300°
2026-05-06 04:48 42.65645 -71.01795 11822 ft 189 kts 299°
2026-05-06 04:49 42.66369 -71.03287 12080 ft 189 kts 299°
2026-05-06 04:49 42.67093 -71.04781 12335 ft 189 kts 299°
2026-05-06 04:49 42.67817 -71.06273 12599 ft 189 kts 299°
2026-05-06 04:49 42.68537 -71.07757 12843 ft 186 kts 299°
2026-05-06 04:50 42.69232 -71.09188 13031 ft 182 kts 299°
2026-05-06 04:50 42.69937 -71.10648 13226 ft 183 kts 299°
2026-05-06 04:50 42.70636 -71.12092 13474 ft 188 kts 299°
2026-05-06 04:50 42.71357 -71.13585 13752 ft 189 kts 299°
2026-05-06 04:51 42.72079 -71.15077 13968 ft 189 kts 299°
2026-05-06 04:51 42.72804 -71.16575 14198 ft 190 kts 299°
2026-05-06 04:51 42.73532 -71.18083 14387 ft 194 kts 299°
2026-05-06 04:51 42.74300 -71.19682 14350 ft 208 kts 299°
2026-05-06 04:52 42.75119 -71.21377 14265 ft 221 kts 300°
2026-05-06 04:52 42.75985 -71.23172 14161 ft 233 kts 300°
2026-05-06 04:52 42.76886 -71.25035 14210 ft 236 kts 300°
2026-05-06 04:52 42.77778 -71.26887 14458 ft 231 kts 300°
2026-05-06 04:53 42.78855 -71.28473 14612 ft 234 kts 323°
2026-05-06 04:53 42.80213 -71.29636 14817 ft 227 kts 319°
2026-05-06 04:53 42.81432 -71.30976 14995 ft 223 kts 315°
2026-05-06 04:53 42.82638 -71.32303 15176 ft 223 kts 317°
2026-05-06 04:54 42.83869 -71.33577 15359 ft 222 kts 317°
2026-05-06 04:54 42.85092 -71.34845 15527 ft 220 kts 317°
2026-05-06 04:54 42.86296 -71.36121 15691 ft 217 kts 315°
2026-05-06 04:54 42.87070 -71.37797 15767 ft 209 kts 282°
2026-05-06 04:55 42.87209 -71.39744 15977 ft 205 kts 270°
2026-05-06 04:55 42.87309 -71.41697 16000 ft 211 kts 276°
2026-05-06 04:55 42.87490 -71.43700 16011 ft 216 kts 275°
2026-05-06 04:55 42.87644 -71.45756 16008 ft 221 kts 274°
2026-05-06 04:56 42.87782 -71.47850 16006 ft 223 kts 274°
2026-05-06 04:56 42.87930 -71.49954 16005 ft 223 kts 275°
2026-05-06 04:56 42.88080 -71.52050 16005 ft 222 kts 275°
2026-05-06 04:56 42.88229 -71.54146 16011 ft 222 kts 274°
2026-05-06 04:57 42.88374 -71.56244 16007 ft 223 kts 274°
2026-05-06 04:57 42.88521 -71.58348 16026 ft 223 kts 274°
2026-05-06 04:57 42.88668 -71.60455 16028 ft 224 kts 275°
2026-05-06 04:57 42.88814 -71.62570 16029 ft 224 kts 275°
2026-05-06 04:58 42.88961 -71.64693 16025 ft 225 kts 275°
2026-05-06 04:58 42.89109 -71.66820 16020 ft 226 kts 275°
2026-05-06 04:58 42.89255 -71.68948 16019 ft 226 kts 275°
2026-05-06 04:58 42.89402 -71.71076 16025 ft 225 kts 275°
2026-05-06 04:59 42.89547 -71.73203 16024 ft 225 kts 275°
2026-05-06 04:59 42.89692 -71.75332 16029 ft 226 kts 275°
2026-05-06 04:59 42.89837 -71.77464 16032 ft 226 kts 275°
2026-05-06 04:59 42.89984 -71.79595 16026 ft 226 kts 275°
2026-05-06 05:00 42.90127 -71.81729 16030 ft 226 kts 275°
2026-05-06 05:00 42.90271 -71.83868 16032 ft 227 kts 275°
2026-05-06 05:00 42.90416 -71.86006 16029 ft 226 kts 275°
2026-05-06 05:00 42.90560 -71.88139 16030 ft 226 kts 275°
2026-05-06 05:01 42.90703 -71.90275 16030 ft 226 kts 275°
2026-05-06 05:01 42.90845 -71.92410 16031 ft 226 kts 275°
2026-05-06 05:01 42.90939 -71.93827 16035 ft 226 kts 275°
2026-05-06 05:01 42.91081 -71.95969 16035 ft 226 kts 275°
2026-05-06 05:02 42.91224 -71.98105 16035 ft 226 kts 275°
2026-05-06 05:02 42.91367 -72.00240 16039 ft 226 kts 275°
2026-05-06 05:02 42.91506 -72.02379 16021 ft 227 kts 275°
2026-05-06 05:02 42.91646 -72.04531 15997 ft 228 kts 275°
2026-05-06 05:03 42.91789 -72.06681 16007 ft 227 kts 275°
2026-05-06 05:03 42.91930 -72.08828 15996 ft 228 kts 274°
2026-05-06 05:03 42.92068 -72.10978 15990 ft 228 kts 274°
2026-05-06 05:03 42.92209 -72.13127 15984 ft 227 kts 274°
2026-05-06 05:04 42.92346 -72.15275 15989 ft 227 kts 274°
2026-05-06 05:04 42.92486 -72.17421 15972 ft 227 kts 274°
2026-05-06 05:04 42.92625 -72.19567 15992 ft 227 kts 274°
2026-05-06 05:04 42.92762 -72.21716 15987 ft 228 kts 274°
2026-05-06 05:05 42.92902 -72.23874 15990 ft 228 kts 274°
2026-05-06 05:05 42.93038 -72.26029 15989 ft 228 kts 274°
2026-05-06 05:05 42.93176 -72.28188 15989 ft 229 kts 274°
2026-05-06 05:05 42.93314 -72.30361 15988 ft 230 kts 274°
2026-05-06 05:06 42.93450 -72.32533 15987 ft 229 kts 274°
2026-05-06 05:06 42.93587 -72.34697 15991 ft 229 kts 274°
2026-05-06 05:06 42.93722 -72.36861 15989 ft 229 kts 274°
2026-05-06 05:06 42.93861 -72.39019 15986 ft 229 kts 274°
2026-05-06 05:07 42.93995 -72.41154 15987 ft 229 kts 274°
2026-05-06 05:07 42.94126 -72.43320 15987 ft 229 kts 274°
2026-05-06 05:07 42.94262 -72.45510 15987 ft 229 kts 274°
2026-05-06 05:07 42.94399 -72.47676 15986 ft 229 kts 274°
2026-05-06 05:08 42.94530 -72.49812 15985 ft 229 kts 274°
2026-05-06 05:08 42.94663 -72.51975 15984 ft 229 kts 274°
2026-05-06 05:08 42.94795 -72.54138 15982 ft 228 kts 273°
2026-05-06 05:08 42.94927 -72.56292 15976 ft 228 kts 273°
2026-05-06 05:09 42.95059 -72.58447 15979 ft 228 kts 273°
2026-05-06 05:09 42.95190 -72.60603 15978 ft 228 kts 273°
2026-05-06 05:09 42.95320 -72.62760 15976 ft 228 kts 273°
2026-05-06 05:09 42.95451 -72.64913 15971 ft 228 kts 273°
2026-05-06 05:10 42.95580 -72.67067 15976 ft 228 kts 273°
2026-05-06 05:10 42.95710 -72.69218 15975 ft 228 kts 273°
2026-05-06 05:10 42.95837 -72.71367 15972 ft 226 kts 274°
2026-05-06 05:10 42.95967 -72.73508 15968 ft 226 kts 273°
2026-05-06 05:11 42.96094 -72.75650 15965 ft 227 kts 273°
2026-05-06 05:11 42.96220 -72.77796 15972 ft 227 kts 273°
2026-05-06 05:11 42.96347 -72.79939 15966 ft 227 kts 273°
2026-05-06 05:11 42.96473 -72.82078 15973 ft 225 kts 272°
2026-05-06 05:12 42.96598 -72.84211 15977 ft 226 kts 272°
2026-05-06 05:12 42.96724 -72.86352 15978 ft 226 kts 272°
2026-05-06 05:12 42.96849 -72.88497 15985 ft 227 kts 272°
2026-05-06 05:12 42.96973 -72.90645 15985 ft 227 kts 272°
2026-05-06 05:13 42.97096 -72.92789 15984 ft 227 kts 272°
2026-05-06 05:13 42.97221 -72.94937 15985 ft 227 kts 272°
2026-05-06 05:13 42.97346 -72.97085 15987 ft 227 kts 272°
2026-05-06 05:13 42.97468 -72.99233 15990 ft 227 kts 272°
2026-05-06 05:14 42.97592 -73.01380 15991 ft 227 kts 272°
2026-05-06 05:14 42.97714 -73.03527 15994 ft 226 kts 272°
2026-05-06 05:14 42.97836 -73.05669 15987 ft 226 kts 272°
2026-05-06 05:14 42.97956 -73.07808 15991 ft 226 kts 272°
2026-05-06 05:15 42.98078 -73.09945 15992 ft 226 kts 272°
2026-05-06 05:15 42.98198 -73.12085 15991 ft 226 kts 272°
2026-05-06 05:15 42.98317 -73.14227 15993 ft 227 kts 272°
2026-05-06 05:15 42.98438 -73.16372 15995 ft 227 kts 272°
2026-05-06 05:16 42.98558 -73.18518 15999 ft 227 kts 272°
2026-05-06 05:16 42.98676 -73.20664 15994 ft 226 kts 271°
2026-05-06 05:16 42.98795 -73.22801 15985 ft 226 kts 272°
2026-05-06 05:16 42.98913 -73.24938 15993 ft 226 kts 271°
2026-05-06 05:17 42.99029 -73.27073 15993 ft 225 kts 271°
2026-05-06 05:17 42.99145 -73.29208 15992 ft 225 kts 271°
2026-05-06 05:17 42.99263 -73.31341 15991 ft 225 kts 271°
2026-05-06 05:17 42.99380 -73.33469 15986 ft 225 kts 271°
2026-05-06 05:18 42.99480 -73.35595 15985 ft 224 kts 270°
2026-05-06 05:18 42.99520 -73.37723 15983 ft 224 kts 269°
2026-05-06 05:18 42.99563 -73.39854 15982 ft 224 kts 269°
2026-05-06 05:18 42.99619 -73.41953 15977 ft 224 kts 269°
2026-05-06 05:19 42.99674 -73.44076 15977 ft 223 kts 269°
2026-05-06 05:19 42.99727 -73.46226 15967 ft 224 kts 269°
2026-05-06 05:19 42.99776 -73.48317 15968 ft 223 kts 269°
2026-05-06 05:19 42.99829 -73.50436 15957 ft 223 kts 269°
2026-05-06 05:20 42.99880 -73.52557 15972 ft 223 kts 269°
2026-05-06 05:20 42.99931 -73.54676 15970 ft 224 kts 269°
2026-05-06 05:20 42.99981 -73.56793 15995 ft 223 kts 269°
2026-05-06 05:20 43.00031 -73.58912 15990 ft 223 kts 269°
2026-05-06 05:21 43.00173 -73.65016 15987 ft 220 kts 269°
2026-05-06 05:21 43.00541 -73.81685 16009 ft 224 kts 268°
2026-05-06 05:21 43.00902 -73.98928 16001 ft 225 kts 268°
2026-05-06 05:21 43.01227 -74.15900 15998 ft 221 kts 268°
2026-05-06 05:22 43.01525 -74.32661 16008 ft 221 kts 268°
2026-05-06 05:22 43.01797 -74.49397 16010 ft 220 kts 268°
2026-05-06 05:22 43.01841 -74.52132 16013 ft 221 kts 268°
2026-05-06 05:22 43.01872 -74.54227 16011 ft 221 kts 268°
2026-05-06 05:23 43.01904 -74.56324 16014 ft 221 kts 268°
2026-05-06 05:23 43.01935 -74.58421 16016 ft 221 kts 268°
2026-05-06 05:23 43.01996 -74.62617 16006 ft 221 kts 268°
2026-05-06 05:24 43.02221 -74.78877 16023 ft 221 kts 267°
2026-05-06 05:24 43.02425 -74.95562 15998 ft 220 kts 267°
2026-05-06 05:24 43.02610 -75.09083 16031 ft 213 kts 264°
2026-05-06 05:24 43.02603 -75.11107 16004 ft 214 kts 263°
2026-05-06 05:25 43.02610 -75.13143 16009 ft 215 kts 264°
2026-05-06 05:25 43.02633 -75.15188 16011 ft 215 kts 264°
2026-05-06 05:25 43.02700 -75.17227 15991 ft 218 kts 272°
2026-05-06 05:25 43.03041 -75.19251 16000 ft 218 kts 273°
2026-05-06 05:26 43.05047 -75.34482 16003 ft 214 kts 271°
2026-05-06 05:26 43.05571 -75.38459 16004 ft 214 kts 272°
2026-05-06 05:26 43.05836 -75.40452 15982 ft 211 kts 272°
2026-05-06 05:26 43.06095 -75.42427 15788 ft 213 kts 271°
2026-05-06 05:27 43.06352 -75.44410 15512 ft 213 kts 271°
2026-05-06 05:27 43.06616 -75.46421 15282 ft 217 kts 271°
2026-05-06 05:27 43.06883 -75.48460 15079 ft 219 kts 271°
2026-05-06 05:27 43.07152 -75.50519 14867 ft 220 kts 271°
2026-05-06 05:28 43.07422 -75.52588 14616 ft 223 kts 271°
2026-05-06 05:28 43.07697 -75.54717 14188 ft 231 kts 271°
2026-05-06 05:28 43.07982 -75.56907 13759 ft 236 kts 271°
2026-05-06 05:28 43.08272 -75.59138 13288 ft 240 kts 271°
2026-05-06 05:29 43.08566 -75.61392 12825 ft 242 kts 271°
2026-05-06 05:29 43.08860 -75.63665 12370 ft 243 kts 271°
2026-05-06 05:29 43.09155 -75.65945 11909 ft 244 kts 271°
2026-05-06 05:29 43.09449 -75.68226 11459 ft 244 kts 271°
2026-05-06 05:30 43.09744 -75.70510 11017 ft 243 kts 271°
2026-05-06 05:30 43.10037 -75.72787 10588 ft 243 kts 271°
2026-05-06 05:30 43.10328 -75.75060 10188 ft 242 kts 271°
2026-05-06 05:30 43.10619 -75.77328 9761 ft 242 kts 271°
2026-05-06 05:31 43.10904 -75.79562 9325 ft 241 kts 271°
2026-05-06 05:31 43.11192 -75.81816 8886 ft 240 kts 271°
2026-05-06 05:31 43.11478 -75.84062 8461 ft 239 kts 271°
2026-05-06 05:31 43.11763 -75.86298 8044 ft 238 kts 271°
2026-05-06 05:32 43.12046 -75.88524 7632 ft 237 kts 272°
2026-05-06 05:32 43.12326 -75.90735 7226 ft 235 kts 272°
2026-05-06 05:32 43.12605 -75.92937 6819 ft 234 kts 272°
2026-05-06 05:32 43.12882 -75.95125 6428 ft 233 kts 272°
2026-05-06 05:33 43.13156 -75.97302 6017 ft 232 kts 273°
2026-05-06 05:33 43.13429 -75.99472 5594 ft 231 kts 274°
2026-05-06 05:33 43.13703 -76.01647 5169 ft 233 kts 275°
2026-05-06 05:33 43.13959 -76.03824 4971 ft 225 kts 274°
2026-05-06 05:34 43.14204 -76.05859 5017 ft 211 kts 274°
2026-05-06 05:34 43.14445 -76.07788 5013 ft 201 kts 275°
2026-05-06 05:34 43.14905 -76.09635 4633 ft 216 kts 291°
2026-05-06 05:34 43.15808 -76.11356 4265 ft 227 kts 307°
2026-05-06 05:35 43.16813 -76.13026 3957 ft 228 kts 304°
2026-05-06 05:35 43.17759 -76.14781 3662 ft 230 kts 303°
2026-05-06 05:35 43.18685 -76.16570 3371 ft 231 kts 303°
2026-05-06 05:35 43.19595 -76.18393 3065 ft 232 kts 304°
2026-05-06 05:36 43.20482 -76.20238 2843 ft 230 kts 303°
2026-05-06 05:36 43.21330 -76.22026 2845 ft 219 kts 303°
2026-05-06 05:36 43.22298 -76.23543 2824 ft 209 kts 326°
2026-05-06 05:36 43.23632 -76.24148 2830 ft 201 kts 358°
2026-05-06 05:37 43.24966 -76.23744 2859 ft 195 kts 25°
2026-05-06 05:37 43.26049 -76.22662 2861 ft 193 kts 45°
2026-05-06 05:37 43.26854 -76.21188 2791 ft 193 kts 59°
2026-05-06 05:37 43.27337 -76.19506 2756 ft 191 kts 83°
2026-05-06 05:38 43.26957 -76.17823 2774 ft 189 kts 128°
2026-05-06 05:38 43.25833 -76.16994 2774 ft 187 kts 174°
2026-05-06 05:38 43.24583 -76.17311 2816 ft 181 kts 193°
2026-05-06 05:38 43.23327 -76.17480 2821 ft 181 kts 182°
2026-05-06 05:39 43.22146 -76.17980 2761 ft 181 kts 219°
2026-05-06 05:39 43.21362 -76.19266 2791 ft 175 kts 225°
2026-05-06 05:39 43.20430 -76.20334 2806 ft 175 kts 219°
2026-05-06 05:39 43.19613 -76.21546 2752 ft 176 kts 246°
2026-05-06 05:40 43.19647 -76.23142 2777 ft 170 kts 298°
2026-05-06 05:40 43.20532 -76.24081 2790 ft 167 kts 348°
2026-05-06 05:40 43.21665 -76.24076 2823 ft 163 kts
2026-05-06 05:40 43.22805 -76.24028 2797 ft 165 kts 357°
2026-05-06 05:41 43.23873 -76.24604 2805 ft 167 kts 326°
2026-05-06 05:41 43.24778 -76.25616 2803 ft 169 kts 320°
2026-05-06 05:41 43.25661 -76.26689 2809 ft 170 kts 319°
2026-05-06 05:41 43.26533 -76.27789 2806 ft 171 kts 317°
2026-05-06 05:42 43.27397 -76.28913 2805 ft 172 kts 318°
2026-05-06 05:42 43.28325 -76.30082 2610 ft 191 kts 318°
2026-05-06 05:42 43.29296 -76.31347 2285 ft 191 kts 318°
2026-05-06 05:42 43.30243 -76.32546 1987 ft 178 kts 319°
2026-05-06 05:43 43.31117 -76.33673 1682 ft 167 kts 318°
2026-05-06 05:43 43.31938 -76.34730 1394 ft 157 kts 319°
2026-05-06 05:43 43.32706 -76.35707 1111 ft 143 kts 318°
2026-05-06 05:43 43.33401 -76.36601 838 ft 136 kts 319°
2026-05-06 05:44 43.34101 -76.37505 701 ft 138 kts 318°
2026-05-06 05:44 43.34777 -76.38373 487 ft 127 kts 318°
2026-05-06 05:44 43.35345 -76.39097 468 ft 85 kts 318°
2026-05-06 05:44 43.35556 -76.39362 459 ft 26 kts 317°
2026-05-06 05:45 43.35610 -76.39508 455 ft 14 kts 225°
2026-05-06 05:45 43.35603 -76.39518 455 ft 0 kts 225°
2026-05-06 05:45 43.31942 -76.34735 1395 ft 0 kts 319°
2026-05-06 05:46 43.32711 -76.35713 1110 ft 0 kts 318°
2026-05-06 05:46 43.33406 -76.36606 840 ft 0 kts 319°
2026-05-06 05:46 43.34107 -76.37512 700 ft 0 kts 318°
2026-05-06 05:46 43.34781 -76.38378 486 ft 0 kts 318°
2026-05-06 05:47 43.35323 -76.39070 468 ft 0 kts 318°
2026-05-06 05:47 43.33976 -76.37343 754 ft 0 kts 318°
2026-05-06 05:47 43.34660 -76.38223 510 ft 0 kts 319°
2026-05-06 05:47 43.35261 -76.38992 470 ft 0 kts 316°
2026-05-06 05:48 43.35533 -76.39333 460 ft 0 kts 317°
2026-05-06 05:48 43.35625 -76.39468 455 ft 0 kts 269°
2026-05-06 05:50 43.34288 -76.37746 634 ft 0 kts 318°
2026-05-06 05:50 43.34338 -76.37809 621 ft 0 kts 318°
2026-05-06 05:50 43.34994 -76.38642 469 ft 0 kts 317°
2026-05-06 05:51 43.32812 -76.35844 1076 ft 0 kts 317°
2026-05-06 05:51 43.31649 -76.34362 1498 ft 0 kts 319°
2026-05-06 05:51 43.32202 -76.35063 1303 ft 0 kts 319°
2026-05-06 05:51 43.32944 -76.36014 1027 ft 0 kts 318°
2026-05-06 05:52 43.33634 -76.36898 828 ft 0 kts 318°
2026-05-06 05:52 43.34334 -76.37805 620 ft 0 kts 318°
2026-05-06 05:52 43.34991 -76.38638 474 ft 0 kts 317°
2026-05-06 05:52 43.35343 -76.39095 468 ft 0 kts 318°
2026-05-06 05:53 43.35457 -76.39238 462 ft 0 kts 317°